ADT,Max TemperatureF,Mean TemperatureF,Min TemperatureF,Max Dew PointF,MeanDew PointF,Min DewpointF,Max Humidity, Mean Humidity, Min Humidity, Max Sea Level PressureIn, Mean Sea Level PressureIn, Min Sea Level PressureIn, Max VisibilityMiles, Mean VisibilityMiles, Min VisibilityMiles, Max Wind SpeedMPH, Mean Wind SpeedMPH, Max Gust SpeedMPH,PrecipitationIn, CloudCover, Events, WindDirDegrees
2013-10-1,71,58,46,56,50,46,96,80,46,29.98,29.88,29.79,,,,5,2,,0.00,,,67
2013-10-2,75,59,43,57,50,42,97,77,32,29.81,29.75,29.66,,,,12,2,20,0.00,,,265
2013-10-3,71,56,40,47,44,40,96,65,24,30.01,29.91,29.79,,,,12,3,20,0.00,,,289
2013-10-4,68,54,41,45,40,34,95,62,21,30.08,30.02,29.99,,,,9,3,20,0.00,,,300
2013-10-5,63,48,34,43,39,34,96,72,34,30.15,30.10,30.06,,,,6,3,,0.00,,,283
2013-10-6,62,48,33,41,35,30,94,66,24,30.29,30.25,30.15,,,,5,2,,0.02,,,292
2013-10-7,63,52,42,62,52,42,95,90,83,30.27,30.12,29.89,,,,12,4,23,0.12,,,136
2013-10-8,64,52,39,63,48,37,95,76,36,30.32,30.03,29.80,,,,14,8,26,0.75,,,269
2013-10-9,64,48,31,45,38,31,97,74,32,30.47,30.40,30.35,,,,6,2,,0.00,,,246
2013-10-10,69,50,30,49,40,30,100,75,26,30.36,30.28,30.20,,,,7,2,,0.00,,,233
2013-10-11,75,56,36,54,46,35,97,75,32,30.21,30.16,30.11,,,,7,1,,0.00,,,354
2013-10-12,61,50,37,50,42,36,95,72,34,30.43,30.36,30.23,,,,7,5,,0.00,,,66
2013-10-13,62,46,29,45,37,30,99,80,36,30.47,30.43,30.38,,,,5,1,,0.00,,,247
2013-10-14,64,46,29,49,40,29,99,80,43,30.38,30.31,30.22,,,,9,2,,0.00,,,201
2013-10-15,66,55,44,52,49,44,96,79,45,30.27,30.24,30.20,,,,6,2,,0.00,,,285
2013-10-16,58,50,41,54,50,41,97,93,79,30.25,30.14,29.93,,,,7,3,,0.31,,,110
2013-10-17,63,55,47,55,53,47,98,92,69,29.90,29.80,29.74,,,,6,2,,0.00,,,260
2013-10-18,59,52,45,57,51,45,98,94,77,29.76,29.66,29.54,,,,10,3,20,0.08,,,137
2013-10-19,61,48,35,50,42,34,97,75,33,29.87,29.83,29.74,,,,13,5,21,0.00,,,259
2013-10-20,61,52,42,53,43,32,97,79,31,29.83,29.73,29.64,,,,12,3,20,0.04,,,178
2013-10-21,57,44,32,37,33,28,94,67,24,30.04,29.95,29.84,,,,10,4,18,0.00,,,263
2013-10-22,59,46,33,53,45,32,97,89,66,30.03,29.86,29.67,,,,14,3,21,0.04,,,153
2013-10-23,53,42,30,42,36,30,100,77,29,29.74,29.68,29.55,,,,7,2,,0.00,,,284
2013-10-24,46,38,29,37,30,23,99,66,28,29.68,29.61,29.55,,,,14,4,23,0.00,,,268
2013-10-25,53,42,30,33,30,28,92,60,33,30.00,29.84,29.68,,,,10,6,,0.00,,,272
2013-10-26,49,37,25,39,29,24,97,79,28,30.07,30.01,29.90,,,,9,2,,0.04,,,232
2013-10-27,50,44,38,42,39,38,96,88,64,29.89,29.82,29.75,,,,8,2,,0.04,,,246
2013-10-28,51,40,29,36,32,28,97,76,50,30.27,30.01,29.88,,,,13,5,22,0.00,,,268
2013-10-29,45,34,22,29,24,19,97,73,25,30.42,30.36,30.28,,,,9,3,,0.00,,,286
2013-10-30,46,32,19,28,21,16,96,74,20,30.37,30.24,30.13,,,,7,2,,0.00,,,271
2013-10-31,54,36,19,53,31,19,96,83,48,30.24,30.14,29.84,,,,8,2,18,0.24,,,169